Weather History for Key West, FL

Change the Weather History Date:

Wednesday, July 3, 2013

  Actual Average Record
Temperature  
Mean Temperature 82 °F 84 °F  
Max Temperature 85 °F 89 °F 95 °F (1957)
Min Temperature 79 °F 80 °F 70 °F (1952)
Degree Days  
Heating Degree Days 0 0  
Month to date heating degree days 0 0  
Since 1 June heating degree days 0 0  
Since 1 July heating degree days 0 0  
Cooling Degree Days 17 19  
Month to date cooling degree days 48 57  
Year to date cooling degree days 2235 2036  
Since 1 June cooling degree days 606 606  
Growing Degree Days 31 (Base 50)    
Moisture  
Dew Point 74 °F    
Average Humidity 77    
Maximum Humidity 85    
Minimum Humidity 69    
Precipitation  
Precipitation T in 0.12 in 2.01 in (1986)
Month to date precipitation 2.18 0.37  
Year to date precipitation 25.51 15.11  
Snow  
Snow 0.00 in - - ()
Month to date snowfall 0.0  
Since 1 June snowfall 0.0  
Since 1 July snowfall 0.0  
Snow Depth 0.00 in    
Sea Level Pressure  
Sea Level Pressure 30.06 in    
Wind  
Wind Speed 12 mph (SE)    
Max Wind Speed 25 mph    
Max Gust Speed 38 mph    
Visibility 10 miles    
Events Rain    
T = Trace of Precipitation, MM = Missing Value Source: NWS Daily Summary

Daily Weather History Graph

Daily Weather History Graph

Search for Another Location

Airport:

Trip Planner

Search our weather history database for the weather conditions in past years. The results will help you decide how hot, cold, wet, or windy it might be!

Date:

Astronomy

Jul. 03, 2013 Rise Set
Actual Time 6:42 AM EDT 8:19 PM EDT
Civil Twilight 6:17 AM EDT 8:45 PM EDT
Nautical Twilight 5:46 AM EDT 9:16 PM EDT
Astronomical Twilight 5:14 AM EDT 9:48 PM EDT
Moon 3:07 AM EDT (7/3) 4:38 PM EDT (7/3)
Length of Visible Light 14h 28m
Length of Day
13h 37m
Waning Crescent, 18% of the Moon is Illuminated
Jul 3
Waning Crescent
Jul 8
New
Jul 15
First Quarter
Jul 22
Full
Jul 29
Last Quarter

Hourly Weather History & Observations

Time (EDT) Temp. Heat Index Dew Point Humidity Pressure Visibility Wind Dir Wind Speed Gust Speed Precip Events Conditions
12:53 AM 80.1 °F 84.5 °F 73.9 °F 81% 30.07 in 10.0 mi East 12.7 mph - N/A   Clear
1:53 AM 80.1 °F 85.1 °F 75.0 °F 85% 30.05 in 10.0 mi ESE 11.5 mph - N/A   Clear
2:53 AM 81.0 °F 86.2 °F 73.9 °F 79% 30.04 in 10.0 mi ESE 12.7 mph - N/A   Scattered Clouds
3:31 AM 82.4 °F 88.2 °F 73.4 °F 74% 30.03 in 10.0 mi SE 10.4 mph - N/A   Scattered Clouds
3:53 AM 82.0 °F 87.4 °F 73.0 °F 74% 30.03 in 10.0 mi ESE 11.5 mph - N/A   Partly Cloudy
4:53 AM 82.0 °F 87.9 °F 73.9 °F 76% 30.03 in 10.0 mi SE 12.7 mph - N/A   Partly Cloudy
5:53 AM 81.0 °F 86.7 °F 75.0 °F 82% 30.03 in 10.0 mi ESE 10.4 mph - N/A   Clear
6:53 AM 81.0 °F 86.2 °F 73.9 °F 79% 30.04 in 10.0 mi ESE 9.2 mph - N/A   Clear
7:53 AM 82.9 °F 90.2 °F 75.0 °F 77% 30.05 in 10.0 mi ESE 10.4 mph - N/A   Clear
8:53 AM 82.9 °F 90.2 °F 75.0 °F 77% 30.07 in 10.0 mi ESE 9.2 mph - N/A   Partly Cloudy
9:53 AM 84.0 °F 92.6 °F 75.9 °F 76% 30.07 in 10.0 mi SE 12.7 mph - N/A   Partly Cloudy
10:53 AM 84.0 °F 91.9 °F 75.0 °F 74% 30.09 in 10.0 mi SSE 11.5 mph - N/A   Clear
11:53 AM 84.9 °F 94.1 °F 75.9 °F 74% 30.10 in 10.0 mi SE 11.5 mph - N/A   Clear
12:53 PM 84.9 °F 92.1 °F 73.9 °F 69% 30.09 in 10.0 mi SE 12.7 mph 20.7 mph N/A   Mostly Cloudy
1:53 PM 84.9 °F 93.3 °F 75.0 °F 72% 30.08 in 10.0 mi SE 12.7 mph - N/A   Mostly Cloudy
2:53 PM 84.0 °F 91.9 °F 75.0 °F 74% 30.06 in 10.0 mi SE 11.5 mph - N/A   Scattered Clouds
3:53 PM 84.0 °F 92.6 °F 75.9 °F 76% 30.05 in 10.0 mi SE 16.1 mph - N/A   Partly Cloudy
4:30 PM 84.2 °F 92.3 °F 75.2 °F 74% 30.05 in 10.0 mi SE 18.4 mph 25.3 mph N/A   Mostly Cloudy
4:38 PM 82.4 °F 89.5 °F 75.2 °F 79% 30.04 in 4.0 mi SE 17.3 mph 25.3 mph 0.00 in Rain Rain
4:53 PM 84.0 °F 92.6 °F 75.9 °F 76% 30.05 in 10.0 mi SE 17.3 mph 24.2 mph 0.00 in   Scattered Clouds
5:17 PM 80.6 °F 84.6 °F 71.6 °F 74% 30.07 in 10.0 mi SSW 18.4 mph 34.5 mph N/A   Mostly Cloudy
5:32 PM 78.8 °F - 69.8 °F 74% 30.06 in 10.0 mi SSW 15.0 mph 20.7 mph 0.00 in   Overcast
5:53 PM 80.1 °F 82.7 °F 68.0 °F 67% 30.05 in 10.0 mi SSE 20.7 mph - 0.00 in Rain Light Rain
6:53 PM 80.1 °F 82.9 °F 69.1 °F 69% 30.05 in 10.0 mi South 6.9 mph - 0.00 in Rain Light Rain
7:53 PM 81.0 °F 83.8 °F 68.0 °F 65% 30.07 in 10.0 mi ESE 5.8 mph - 0.00 in   Scattered Clouds
8:53 PM 82.0 °F 86.3 °F 71.1 °F 69% 30.08 in 10.0 mi East 15.0 mph - N/A   Partly Cloudy
9:53 PM 81.0 °F 84.9 °F 71.1 °F 72% 30.08 in 10.0 mi ESE 11.5 mph - 0.00 in   Clear
10:53 PM 82.0 °F 87.9 °F 73.9 °F 76% 30.09 in 10.0 mi NE 4.6 mph - N/A   Partly Cloudy
11:53 PM 82.0 °F 88.6 °F 75.0 °F 79% 30.08 in 10.0 mi East 8.1 mph - N/A   Clear